KC1OEK-13 Weather Reports


Display with metric or nautical units.
time (UTC)temp
F
wind
direction
speed
MPH
gust
MPH
rain 1hr
in
rain 24hr
in
rain mn
in
humidity
%
barometer
mb
20260506181907 59 344 3.0 7.0 0.07 0.06 0.06 96 1009.7
20260506181404 59 242 3.0 8.0 0.00 0.05 0.05 95 1009.9
20260506180901 59 258 5.0 6.0 0.05 0.05 0.05 95 1009.7
20260506180357 59 17 0.0 3.0 0.05 0.05 0.05 95 1009.7
20260506175854 59 340 0.0 2.0 0.00 0.04 0.04 95 1009.5
20260506175350 59 338 2.0 3.0 0.00 0.04 0.04 94 1009.6
20260506174848 59 155 3.0 5.0 0.00 0.04 0.04 93 1009.5
20260506174345 59 36 0.0 6.0 0.00 0.04 0.04 93 1009.7
20260506173843 59 106 1.0 3.0 0.07 0.04 0.04 93 1009.6
20260506173339 60 175 3.0 6.0 0.00 0.03 0.03 92 1009.7
20260506172836 60 190 4.0 6.0 0.05 0.03 0.03 91 1009.7
20260506172333 61 5 2.0 5.0 0.12 0.03 0.03 91 1009.9
20260506171830 61 74 2.0 7.0 0.07 0.02 0.02 90 1010.0
20260506171327 62 186 2.0 6.0 0.05 0.01 0.01 89 1010.2
20260506170825 62 44 1.0 3.0 0.05 0.01 0.01 88 1010.4
20260506170321 62 297 2.0 5.0 0.00 0.00 0.00 87 1010.4
20260506165820 63 285 1.0 2.0 0.00 0.00 0.00 86 1010.5
20260506165317 63 241 3.0 6.0 0.00 0.00 0.00 84 1010.7
20260506164814 64 220 2.0 3.0 0.00 0.00 0.00 82 1010.5
20260506164310 64 194 7.0 9.0 0.00 0.00 0.00 79 1010.7
20260506163808 64 262 3.0 6.0 0.00 0.00 0.00 79 1010.7
20260506163302 65 232 5.0 9.0 0.00 0.00 0.00 77 1010.5
20260506162758 65 208 5.0 8.0 0.00 0.00 0.00 77 1010.7
20260506162256 66 132 5.0 7.0 0.00 0.00 0.00 77 1010.7
20260506161753 66 257 4.0 7.0 0.00 0.00 0.00 76 1010.7
20260506161250 66 227 4.0 7.0 0.00 0.00 0.00 76 1010.7
20260506160748 66 232 4.0 7.0 0.00 0.00 0.00 77 1010.6
20260506160244 66 199 3.0 7.0 0.00 0.00 0.00 76 1010.6
20260506155743 66 356 2.0 5.0 0.00 0.00 0.00 75 1010.6
20260506155239 66 21 2.0 6.0 0.00 0.00 0.00 74 1010.8
20260506153347 67 208 4.0 5.0 0.00 0.00 0.00 74 1011.1
20260506152844 66 278 3.0 6.0 0.00 0.00 0.00 74 1011.2
20260506152341 66 196 7.0 8.0 0.00 0.00 0.00 74 1011.1
20260506151839 66 176 9.0 13.0 0.00 0.00 0.00 74 1010.9
20260506151335 66 176 9.0 13.0 0.00 0.00 0.00 74 1010.9
20260506150833 66 121 4.0 7.0 0.00 0.00 0.00 74 1010.9
20260506150330 67 244 3.0 3.0 0.00 0.00 0.00 74 1010.9
20260506145826 66 251 7.0 15.0 0.00 0.00 0.00 74 1011.1
20260506145323 66 203 6.0 8.0 0.00 0.00 0.00 73 1010.9
20260506144820 67 240 3.0 7.0 0.00 0.00 0.00 75 1011.0
20260506144317 66 293 3.0 6.0 0.00 0.00 0.00 74 1011.1
20260506143816 66 277 2.0 9.0 0.00 0.00 0.00 75 1011.0
20260506143312 66 237 4.0 8.0 0.00 0.00 0.00 74 1011.2
20260506142810 66 230 5.0 7.0 0.00 0.00 0.00 74 1011.2
20260506142308 66 188 2.0 8.0 0.00 0.00 0.00 75 1011.3
20260506141806 66 311 3.0 8.0 0.00 0.00 0.00 75 1011.4
20260506141304 66 225 7.0 8.0 0.00 0.00 0.00 75 1011.3
20260506140801 66 213 6.0 8.0 0.00 0.00 0.00 74 1011.2
20260506140258 66 304 3.0 8.0 0.00 0.00 0.00 75 1011.4
20260506135755 66 178 3.0 5.0 0.00 0.00 0.00 75 1011.2
20260506135251 65 288 2.0 5.0 0.00 0.00 0.00 77 1011.1
20260506134748 65 207 4.0 11.0 0.00 0.00 0.00 77 1011.2
20260506134244 65 298 3.0 7.0 0.00 0.00 0.00 77 1011.1
20260506133742 65 208 2.0 5.0 0.00 0.00 0.00 77 1011.4
20260506133238 64 280 4.0 10.0 0.00 0.00 0.00 78 1011.1
20260506132735 64 207 5.0 8.0 0.00 0.00 0.00 78 1011.1
20260506132232 64 286 4.0 8.0 0.00 0.00 0.00 78 1011.2
20260506131730 65 251 4.0 6.0 0.00 0.00 0.00 78 1010.9
20260506131226 65 251 3.0 5.0 0.00 0.00 0.00 78 1011.1
20260506130723 64 220 4.0 5.0 0.00 0.00 0.00 79 1011.3
20260506130220 64 201 4.0 6.0 0.00 0.00 0.00 79 1011.3
20260506125718 63 194 2.0 3.0 0.00 0.00 0.00 81 1011.3
20260506125215 63 326 1.0 3.0 0.00 0.00 0.00 82 1011.3
20260506124713 63 221 1.0 3.0 0.00 0.00 0.00 82 1011.4
20260506124211 63 315 3.0 5.0 0.00 0.00 0.00 82 1011.3
20260506123708 62 7 1.0 7.0 0.00 0.00 0.00 82 1011.4
20260506123207 62 341 3.0 7.0 0.00 0.00 0.00 82 1011.5
20260506122703 62 318 2.0 3.0 0.00 0.00 0.00 83 1011.6
20260506122201 62 260 4.0 6.0 0.00 0.00 0.00 84 1011.9
20260506121659 62 256 4.0 6.0 0.00 0.00 0.00 83 1011.9
20260506121155 62 222 4.0 5.0 0.00 0.00 0.00 83 1011.7
20260506120653 61 233 3.0 3.0 0.00 0.00 0.00 84 1011.8
20260506120150 61 13 1.0 2.0 0.00 0.00 0.00 85 1011.7
20260506115648 60 111 3.0 5.0 0.00 0.00 0.00 86 1011.8
20260506115146 60 331 1.0 1.0 0.00 0.00 0.00 87 1011.6
20260506114643 60 69 3.0 3.0 0.00 0.00 0.00 87 1011.5
20260506114141 60 219 2.0 2.0 0.00 0.00 0.00 88 1011.7
20260506113640 59 89 2.0 2.0 0.00 0.00 0.00 88 1011.6
20260506113136 59 12 0.0 3.0 0.00 0.00 0.00 88 1011.6
20260506112632 59 0 0.0 2.0 0.00 0.00 0.00 89 1011.7
20260506112130 59 16 0.0 2.0 0.00 0.00 0.00 89 1011.9
20260506111628 58 25 0.0 2.0 0.00 0.00 0.00 90 1011.7
20260506111125 58 13 0.0 1.0 0.00 0.00 0.00 91 1011.8
20260506110622 58 27 0.0 1.0 0.00 0.00 0.00 91 1011.8
20260506110120 57 20 0.0 3.0 0.00 0.00 0.00 92 1011.8
20260506105616 57 356 1.0 2.0 0.00 0.00 0.00 92 1011.8
20260506105113 56 2 0.0 1.0 0.00 0.00 0.00 93 1012.0
20260506104611 56 27 0.0 0.0 0.00 0.00 0.00 94 1011.7
20260506104108 56 30 0.0 1.0 0.00 0.00 0.00 94 1012.0
20260506103606 56 4 0.0 0.0 0.00 0.00 0.00 94 1011.6
20260506103102 55 27 0.0 1.0 0.00 0.00 0.00 94 1011.5
20260506102601 55 24 0.0 1.0 0.00 0.00 0.00 94 1011.7
20260506102058 55 1 0.0 1.0 0.00 0.00 0.00 95 1011.8
20260506101554 55 6 0.0 1.0 0.00 0.00 0.00 95 1011.6
20260506101051 55 20 0.0 0.0 0.00 0.00 0.00 94 1011.6
20260506100550 55 16 0.0 1.0 0.00 0.00 0.00 94 1011.7
20260506100047 55 27 1.0 1.0 0.00 0.00 0.00 94 1011.5
20260506095546 55 22 0.0 1.0 0.00 0.00 0.00 94 1011.6
20260506095042 55 11 1.0 1.0 0.00 0.00 0.00 94 1011.7
20260506094540 55 21 0.0 0.0 0.00 0.00 0.00 94 1011.6
20260506094038 55 21 0.0 0.0 0.00 0.00 0.00 94 1011.7
20260506093536 55 29 0.0 0.0 0.00 0.00 0.00 93 1011.7
20260506093033 55 18 0.0 1.0 0.00 0.00 0.00 93 1011.6
20260506092530 55 30 0.0 1.0 0.00 0.00 0.00 93 1011.7
20260506092027 55 32 0.0 1.0 0.00 0.00 0.00 93 1011.7
20260506091526 55 19 0.0 1.0 0.00 0.00 0.00 93 1011.5
20260506091022 55 18 0.0 0.0 0.00 0.00 0.00 93 1011.7
20260506090520 55 39 0.0 1.0 0.00 0.00 0.00 93 1011.6
20260506090016 55 24 0.0 1.0 0.00 0.00 0.00 92 1011.6
20260506085513 55 25 0.0 0.0 0.00 0.00 0.00 92 1011.7
20260506085009 55 23 0.0 0.0 0.00 0.00 0.00 91 1011.9
20260506084506 56 33 0.0 1.0 0.00 0.00 0.00 91 1011.9
20260506084002 56 30 0.0 1.0 0.00 0.00 0.00 91 1011.7
20260506083500 56 7 0.0 2.0 0.00 0.00 0.00 90 1011.7
20260506082957 56 92 1.0 2.0 0.00 0.00 0.00 90 1011.9
20260506082454 56 21 0.0 0.0 0.00 0.00 0.00 90 1011.9
20260506081949 56 12 0.0 0.0 0.00 0.00 0.00 89 1011.9
20260506081448 57 9 0.0 1.0 0.00 0.00 0.00 89 1011.9
20260506080945 56 9 1.0 1.0 0.00 0.00 0.00 89 1011.9
20260506080442 57 67 0.0 2.0 0.00 0.00 0.00 89 1011.7
20260506073426 57 36 1.0 1.0 0.00 0.00 0.00 87 1011.9
20260506072923 57 13 0.0 1.0 0.00 0.00 0.00 87 1011.9
20260506072420 57 170 2.0 3.0 0.00 0.00 0.00 87 1012.0
20260506071918 58 8 0.0 1.0 0.00 0.00 0.00 86 1012.0
20260506071416 58 228 1.0 6.0 0.00 0.00 0.00 86 1012.0
20260506070912 58 12 0.0 1.0 0.00 0.00 0.00 86 1011.9
20260506070409 58 326 1.0 3.0 0.00 0.00 0.00 85 1011.9
20260506062347 58 285 0.0 2.0 0.00 0.00 0.00 83 1011.5
20260506061843 58 18 0.0 0.0 0.00 0.00 0.00 82 1011.8
20260506061339 59 18 0.0 0.0 0.00 0.00 0.00 82 1011.9
20260506060838 59 33 0.0 1.0 0.00 0.00 0.00 81 1011.8
20260506060335 59 9 0.0 0.0 0.00 0.00 0.00 80 1011.6
20260506051307 61 325 1.0 5.0 0.00 0.00 0.00 76 1012.3
20260506050805 60 345 3.0 3.0 0.00 0.00 0.00 76 1012.4
20260506050302 61 9 0.0 1.0 0.00 0.00 0.00 76 1012.2
20260506044752 62 277 2.0 9.0 0.00 0.00 0.00 74 1012.4
20260506044250 62 301 1.0 3.0 0.00 0.00 0.00 74 1012.3
20260506043747 62 302 1.0 2.0 0.00 0.00 0.00 74 1012.2
20260506043244 62 301 1.0 6.0 0.00 0.00 0.00 73 1012.2
20260506042743 62 184 2.0 5.0 0.00 0.00 0.00 72 1012.2
20260506042242 63 252 4.0 5.0 0.00 0.00 0.00 72 1012.3
20260506041739 63 242 3.0 8.0 0.00 0.00 0.00 71 1012.3
20260506041236 63 170 2.0 5.0 0.00 0.00 0.00 71 1012.3
20260506040734 63 265 3.0 8.0 0.00 0.00 0.00 71 1012.2
20260506040231 63 233 6.0 9.0 0.00 0.00 0.00 70 1012.2
20260506035727 64 26 1.0 8.0 0.00 0.00 0.00 70 1012.3
20260506035224 63 268 2.0 8.0 0.00 0.00 0.00 70 1012.3
20260506034721 64 10 0.0 5.0 0.00 0.00 0.00 70 1012.3
20260506034218 63 220 4.0 5.0 0.00 0.00 0.00 71 1012.2
20260506033716 62 246 2.0 5.0 0.00 0.00 0.00 71 1012.2
20260506033212 62 342 1.0 2.0 0.00 0.00 0.00 72 1012.2
20260506032709 62 345 1.0 2.0 0.00 0.00 0.00 73 1012.1
20260506032207 62 16 1.0 5.0 0.00 0.00 0.00 72 1012.3
20260506031703 62 52 1.0 2.0 0.00 0.00 0.00 73 1012.2
20260506031200 61 10 0.0 0.0 0.00 0.00 0.00 73 1012.1
20260506030659 61 330 1.0 2.0 0.00 0.00 0.00 73 1012.3
20260506030156 62 29 0.0 2.0 0.00 0.00 0.00 72 1012.3
20260506025652 62 108 1.0 2.0 0.00 0.00 0.00 72 1012.4
20260506025149 62 12 0.0 3.0 0.00 0.00 0.00 71 1012.1
20260506024646 62 208 3.0 6.0 0.00 0.00 0.00 71 1012.3
20260506024142 62 27 0.0 1.0 0.00 0.00 0.00 71 1012.2
20260506023638 62 178 1.0 3.0 0.00 0.00 0.00 70 1012.1
20260506023135 63 28 2.0 5.0 0.00 0.00 0.00 69 1012.0
20260506022633 64 16 0.0 6.0 0.00 0.00 0.00 68 1012.1
20260506022130 63 193 3.0 5.0 0.00 0.00 0.00 69 1012.1
20260506021628 63 0 2.0 3.0 0.00 0.00 0.00 69 1012.1
20260506021125 63 342 1.0 1.0 0.00 0.00 0.00 69 1012.1
20260506020622 63 358 0.0 1.0 0.00 0.00 0.00 70 1012.3
20260506020120 63 8 0.0 0.0 0.00 0.00 0.00 70 1011.9
20260506015617 63 12 0.0 1.0 0.00 0.00 0.00 69 1011.9
20260506015114 63 25 0.0 1.0 0.00 0.00 0.00 69 1012.0
20260506014612 64 17 0.0 1.0 0.00 0.00 0.00 68 1011.7
20260506014107 64 42 1.0 1.0 0.00 0.00 0.00 68 1011.8
20260506013605 64 1 0.0 1.0 0.00 0.00 0.00 67 1011.8
20260506013102 65 295 1.0 2.0 0.00 0.00 0.00 67 1011.5
20260506012558 65 277 1.0 5.0 0.00 0.00 0.00 66 1011.7
20260506012054 64 219 5.0 7.0 0.00 0.00 0.00 66 1011.6
20260506011552 64 283 3.0 5.0 0.00 0.00 0.00 67 1011.5
20260506011043 64 13 0.0 1.0 0.00 0.00 0.00 66 1011.5
20260506010542 64 10 0.0 3.0 0.00 0.00 0.00 66 1011.5
20260506010038 65 356 1.0 1.0 0.00 0.00 0.00 66 1011.4
20260506005536 65 353 1.0 3.0 0.00 0.00 0.00 65 1011.3
20260506005031 65 0 0.0 1.0 0.00 0.00 0.00 65 1011.2
20260506004529 66 30 0.0 1.0 0.00 0.00 0.00 64 1011.2
20260506004026 66 319 1.0 6.0 0.00 0.00 0.00 63 1011.0
20260506003522 66 203 4.0 7.0 0.00 0.00 0.00 63 1011.0
20260506003018 66 304 1.0 2.0 0.00 0.00 0.00 64 1011.0
20260506002514 66 317 1.0 3.0 0.00 0.00 0.00 63 1010.8
20260506002010 66 239 2.0 3.0 0.00 0.00 0.00 63 1010.8
20260506001507 67 345 2.0 3.0 0.00 0.00 0.00 62 1010.6
20260506001004 67 287 2.0 3.0 0.00 0.00 0.00 61 1010.7
20260506000501 68 268 3.0 5.0 0.00 0.00 0.00 61 1010.4
20260505235958 68 58 2.0 6.0 0.00 0.00 0.00 61 1010.5
20260505235457 68 210 5.0 7.0 0.00 0.00 0.00 60 1010.5
20260505234953 68 314 3.0 5.0 0.00 0.00 0.00 60 1010.5
20260505234450 68 347 2.0 5.0 0.00 0.00 0.00 60 1010.3
20260505233947 68 14 2.0 7.0 0.00 0.00 0.00 60 1010.3
20260505233445 69 286 2.0 6.0 0.00 0.00 0.00 60 1010.3
20260505232942 69 191 4.0 6.0 0.00 0.00 0.00 59 1010.1
20260505232440 69 182 7.0 9.0 0.00 0.00 0.00 58 1010.1
20260505231937 69 238 3.0 5.0 0.00 0.00 0.00 59 1010.0
20260505231434 70 211 3.0 6.0 0.00 0.00 0.00 58 1010.0
20260505230932 70 213 4.0 9.0 0.00 0.00 0.00 57 1009.6
20260505230430 70 199 10.0 16.0 0.00 0.00 0.00 56 1010.0
20260505225925 70 103 2.0 10.0 0.00 0.00 0.00 57 1010.0
20260505225423 70 199 5.0 7.0 0.00 0.00 0.00 57 1009.7
20260505224918 70 318 4.0 6.0 0.00 0.00 0.00 57 1009.8
20260505224416 71 213 4.0 6.0 0.00 0.00 0.00 56 1009.7
20260505223913 71 227 6.0 14.0 0.00 0.00 0.00 55 1009.6
20260505223410 72 221 4.0 7.0 0.00 0.00 0.00 55 1009.4
20260505222906 72 287 3.0 9.0 0.00 0.00 0.00 55 1009.5
20260505222402 72 211 11.0 18.0 0.00 0.00 0.00 55 1009.5
20260505221859 72 206 5.0 10.0 0.00 0.00 0.00 56 1009.3
20260505221356 72 224 5.0 9.0 0.00 0.00 0.00 55 1009.7
20260505220853 74 162 3.0 6.0 0.00 0.00 0.00 54 1009.7
20260505220350 74 17 3.0 10.0 0.00 0.00 0.00 52 1009.6
20260505215847 74 254 5.0 11.0 0.00 0.00 0.00 52 1009.7
20260505215345 74 223 9.0 13.0 0.00 0.00 0.00 52 1009.7
20260505214843 75 152 6.0 18.0 0.00 0.00 0.00 51 1009.5
20260505214340 75 200 4.0 10.0 0.00 0.00 0.00 51 1009.6
20260505213837 75 217 5.0 9.0 0.00 0.00 0.00 51 1009.4
20260505213335 76 228 4.0 8.0 0.00 0.00 0.00 50 1009.5
20260505212831 76 13 2.0 9.0 0.00 0.00 0.00 50 1009.1
20260505212328 75 176 4.0 9.0 0.00 0.00 0.00 51 1009.4
20260505211824 76 263 4.0 11.0 0.00 0.00 0.00 51 1009.1
20260505211322 76 222 6.0 10.0 0.00 0.00 0.00 49 1009.4
20260505210818 77 358 0.0 10.0 0.00 0.00 0.00 50 1009.1
20260505210315 76 101 2.0 6.0 0.00 0.00 0.00 50 1009.4
20260505205812 76 183 4.0 11.0 0.00 0.00 0.00 51 1009.3
20260505205311 75 228 4.0 7.0 0.00 0.00 0.00 50 1009.4
20260505204807 76 26 4.0 10.0 0.00 0.00 0.00 51 1009.4
20260505204305 77 191 7.0 8.0 0.00 0.00 0.00 50 1009.5
20260505203802 76 251 5.0 9.0 0.00 0.00 0.00 50 1009.4
20260505203259 76 177 5.0 11.0 0.00 0.00 0.00 49 1009.3
20260505202755 76 192 13.0 16.0 0.00 0.00 0.00 49 1009.5
20260505202251 77 194 6.0 13.0 0.00 0.00 0.00 49 1009.4
20260505201747 77 266 8.0 10.0 0.00 0.00 0.00 48 1009.3
20260505201245 77 263 5.0 15.0 0.00 0.00 0.00 50 1009.5
20260505200743 76 194 8.0 16.0 0.00 0.00 0.00 50 1009.5
20260505200240 77 203 8.0 15.0 0.00 0.00 0.00 47 1009.6
20260505195735 77 139 9.0 15.0 0.00 0.00 0.00 48 1009.6
20260505195233 78 303 1.0 18.0 0.00 0.00 0.00 48 1009.5
20260505194730 78 173 6.0 14.0 0.00 0.00 0.00 45 1009.4
20260505194227 79 214 11.0 15.0 0.00 0.00 0.00 46 1009.3
20260505193722 78 222 6.0 10.0 0.00 0.00 0.00 46 1009.4
20260505193220 78 175 5.0 9.0 0.00 0.00 0.00 46 1009.4
20260505192719 79 203 7.0 16.0 0.00 0.00 0.00 45 1009.6
20260505192216 79 216 8.0 10.0 0.00 0.00 0.00 47 1009.5
20260505191714 78 238 6.0 11.0 0.00 0.00 0.00 47 1009.4
20260505191212 78 238 3.0 16.0 0.00 0.00 0.00 46 1009.5
20260505190708 78 157 7.0 15.0 0.00 0.00 0.00 44 1009.5
20260505190207 80 227 7.0 11.0 0.00 0.00 0.00 46 1009.8
20260505185705 79 336 8.0 15.0 0.00 0.00 0.00 44 1009.7
20260505185201 80 210 5.0 7.0 0.00 0.00 0.00 46 1009.7
20260505184657 79 231 6.0 10.0 0.00 0.00 0.00 44 1009.9
20260505184154 79 218 6.0 15.0 0.00 0.00 0.00 47 1010.1
20260505183651 79 212 10.0 16.0 0.00 0.00 0.00 45 1010.1
20260505183149 79 197 4.0 7.0 0.00 0.00 0.00 45 1009.9
20260505182645 79 143 7.0 15.0 0.00 0.00 0.00 45 1010.0
20260505182142 80 273 3.0 9.0 0.00 0.00 0.00 46 1010.0